Terminal Aerodrome Forecast
Issued by NWS

Home | Current Version | Previous Version | Text Only | Print | Product List | Glossary Off
Versions: 1 2 3 4 5 6 7 8 9 10 11 12 13 14 15 16 17 18 19 20 21 22 23 24 25 26 27 28 29 30 31 32 33 34 35 36 37 38 39 40 41 42 43 44

000
FTUS43 KLOT 051846 AAA
TAFORD
TAF AMD
KORD 051846Z 0519/0624 03010KT 3SM BR OVC004
     FM060000 05007KT 2SM BR OVC003
     FM060300 06008KT 1SM BR OVC002
     FM061300 VRB04KT 4SM BR OVC007
     FM061600 20005KT P6SM SCT020 BKN040
     FM061900 09008KT P6SM BKN050=

USA.gov is the U.S. government's official web portal to all federal, state and local government web resources and services.